EW9254 Weather Reports


time (UTC)temp
F
wind
direction
speed
knots
gust
knots
rain 1hr
in
rain 24hr
in
rain mn
in
humidity
%
barometer
mb
20260510143057 46 142 0.0 0.0 0.00 0.02 0.00 91 1028.8
20260510141542 47 142 0.0 0.0 0.00 0.02 0.00 91 1028.8
20260510140038 47 142 0.0 0.0 0.00 0.02 0.00 91 1028.9
20260510134541 47 142 0.0 0.0 0.00 0.02 0.02 90 1028.8
20260510133038 48 142 0.0 0.0 0.00 0.02 0.02 90 1028.8
20260510131537 48 142 0.0 0.0 0.00 0.02 0.02 90 1028.9
20260510130037 48 142 0.0 0.0 0.00 0.02 0.02 88 1028.8
20260510124539 49 142 0.0 0.0 0.00 0.02 0.02 89 1029.0
20260510123036 50 142 0.0 0.0 0.00 0.02 0.02 89 1029.1
20260510121535 50 142 0.0 0.0 0.00 0.02 0.02 89 1029.0
20260510120037 50 142 0.0 0.0 0.00 0.02 0.02 88 1028.9
20260510114543 50 142 0.0 0.0 0.00 0.02 0.02 86 1028.9
20260510113034 51 142 0.0 1.7 0.00 0.02 0.02 83 1028.9
20260510111535 52 142 0.0 0.0 0.00 0.02 0.02 82 1028.8
20260510110038 54 209 0.0 0.0 0.00 0.02 0.02 81 1028.8
20260510104533 55 209 0.9 2.6 0.00 0.02 0.02 80 1028.8
20260510103033 56 194 0.9 2.6 0.00 0.02 0.02 80 1028.8
20260510101534 56 212 0.0 0.9 0.00 0.02 0.02 79 1028.8
20260510100048 56 225 0.9 2.6 0.00 0.02 0.02 79 1028.9
20260510094546 57 225 1.7 2.6 0.00 0.02 0.02 79 1028.8
20260510093031 57 205 0.9 2.6 0.00 0.02 0.02 78 1028.5
20260510091531 58 205 0.9 2.6 0.00 0.02 0.02 78 1028.4
20260510090040 56 205 0.9 1.7 0.00 0.02 0.02 80 1028.2
20260510084529 57 205 0.0 0.0 0.00 0.02 0.02 78 1028.0
20260510083031 59 204 0.0 0.0 0.00 0.02 0.02 74 1027.8
20260510081543 61 205 0.0 0.0 0.00 0.02 0.02 71 1027.8
20260510080031 62 205 0.0 0.0 0.00 0.02 0.02 70 1027.7
20260510074528 64 205 0.0 0.0 0.00 0.02 0.02 68 1027.6
20260510073027 65 205 0.0 0.0 0.00 0.02 0.02 65 1027.5
20260510071529 66 194 0.0 3.5 0.00 0.02 0.02 62 1027.3
20260510070030 67 159 1.7 4.3 0.00 0.02 0.02 61 1027.2
20260510064522 69 198 1.7 6.1 0.00 0.02 0.02 59 1027.3
20260510063019 70 188 0.9 4.3 0.00 0.02 0.02 56 1027.2
20260510061518 70 132 0.9 4.3 0.00 0.02 0.02 57 1027.2
20260510060016 70 119 2.6 5.2 0.00 0.02 0.02 57 1027.2
20260510054516 69 115 2.6 7.0 0.00 0.02 0.02 59 1027.2
20260510053013 69 238 0.0 4.3 0.00 0.02 0.02 58 1027.1
20260510051513 67 288 0.0 1.7 0.00 0.02 0.02 62 1027.2
20260510050111 68 246 0.9 2.6 0.00 0.02 0.02 58 1027.3
20260510044521 70 165 1.7 5.2 0.00 0.02 0.02 57 1027.2
20260510043011 70 227 3.5 7.0 0.00 0.02 0.02 56 1027.2
20260510041512 70 165 0.9 5.2 0.00 0.02 0.02 57 1027.2
20260510040010 69 88 2.6 4.3 0.00 0.02 0.02 61 1027.3
20260510034507 68 130 2.6 4.3 0.00 0.02 0.02 61 1027.4
20260510033007 70 240 1.7 5.2 0.00 0.02 0.02 59 1027.4
20260510031504 70 103 1.7 4.3 0.00 0.02 0.02 64 1027.6
20260510030002 69 290 0.9 5.2 0.00 0.02 0.02 57 1027.8
20260510024502 69 135 0.0 2.6 0.00 0.02 0.02 59 1028.0
20260510023059 68 128 0.9 6.1 0.00 0.02 0.02 60 1028.2
20260510021559 68 172 0.9 6.1 0.00 0.02 0.02 63 1028.4
20260510020053 68 100 0.9 5.2 0.00 0.02 0.02 64 1028.7
20260510014551 68 150 0.9 4.3 0.00 0.02 0.02 67 1028.9
20260510013048 67 72 0.9 3.5 0.00 0.02 0.02 68 1029.1
20260510011546 66 66 1.7 5.2 0.00 0.02 0.02 69 1029.1
20260510010041 65 88 2.6 5.2 0.00 0.02 0.02 72 1029.2
20260510004539 64 65 1.7 5.2 0.00 0.02 0.02 72 1029.1
20260510003033 62 103 2.6 6.1 0.00 0.02 0.02 79 1029.1
20260510001529 60 130 3.5 6.1 0.00 0.02 0.02 83 1029.1
20260510000044 58 107 2.6 6.1 0.00 0.02 0.02 86 1029.1
20260509234520 57 107 3.5 6.1 0.00 0.02 0.02 90 1029.2
20260509233015 55 109 2.6 5.2 0.00 0.02 0.02 94 1029.2
20260509231512 52 123 2.6 3.5 0.00 0.02 0.02 94 1029.4
20260509230006 50 139 2.6 6.1 0.00 0.02 0.02 94 1029.2
20260509223106 48 160 1.7 2.6 0.01 0.02 0.02 95 1029.1
20260509221555 46 183 0.9 3.5 0.01 0.02 0.02 94 1028.9
20260509220050 45 171 0.9 3.5 0.01 0.02 0.02 94 1028.8
20260509214546 45 198 0.0 0.0 0.00 0.01 0.01 94 1028.6
20260509213043 44 198 0.0 2.6 0.00 0.01 0.01 93 1028.3
20260509211543 45 211 0.9 2.6 0.00 0.01 0.01 94 1028.2
20260509210045 44 207 0.0 1.7 0.00 0.01 0.01 93 1028.1
20260509204546 45 211 0.0 1.7 0.00 0.01 0.01 93 1028.0
20260509203036 45 206 0.9 3.5 0.00 0.01 0.01 93 1027.8
20260509201538 45 203 0.9 2.6 0.00 0.01 0.01 93 1027.7
20260509200034 45 218 0.0 1.7 0.00 0.01 0.01 93 1027.6
20260509194534 45 222 0.0 0.0 0.00 0.01 0.01 93 1027.5
20260509193030 45 222 0.0 1.7 0.00 0.01 0.01 93 1027.3
20260509191528 46 219 0.9 2.6 0.00 0.01 0.01 93 1027.3
20260509190024 46 234 1.7 2.6 0.00 0.01 0.01 93 1027.1
20260509184538 45 248 0.9 1.7 0.00 0.01 0.01 93 1026.9
20260509183023 45 252 0.0 0.0 0.00 0.01 0.01 93 1026.9
20260509181522 45 252 0.0 0.9 0.00 0.01 0.01 93 1026.8
20260509180021 46 252 0.0 0.9 0.00 0.01 0.01 93 1026.8
20260509174521 45 257 0.0 0.0 0.00 0.01 0.01 92 1026.7
20260509173019 46 257 0.0 0.0 0.00 0.01 0.01 92 1026.7
20260509171518 46 257 0.0 0.0 0.00 0.01 0.01 92 1026.9
20260509170016 47 257 0.0 0.0 0.00 0.01 0.01 92 1026.9
20260509164513 48 257 0.0 1.7 0.01 0.01 0.01 93 1026.9
20260509163016 48 248 0.0 2.6 0.01 0.01 0.01 93 1026.8
20260509161512 48 252 0.9 2.6 0.01 0.01 0.01 93 1026.9
20260509160011 47 269 0.9 2.6 0.01 0.01 0.01 93 1027.0
20260509154512 47 274 1.7 2.6 0.00 0.00 0.00 93 1027.0
20260509153107 47 277 0.9 1.7 0.00 0.00 0.00 92 1027.0
20260509151506 48 277 0.9 2.6 0.00 0.00 0.00 92 1027.1
20260509144527 48 273 1.7 2.6 0.00 0.00 0.00 93 1027.2